sat.trackr.live / text

‹ back to catalog

GSAT0234 (GALILEO 34)

NORAD 67162 · 2025-302C

PAYLOAD ACTIVE UNKNOWN

§ Identity

Operator
Country
ESA
Launch date
2025-12-17
Launch site
FRGUI
Launch vehicle
Mass (kg)
RCS (m²)

Purposes: earth_obs, nav

External: N2YO · Heavens-Above · Gunter

§ Orbital elements

Epoch: 2026-09-19T01:56:31.727328Z

Period
844.70 min
Inclination
54.3983°
Eccentricity
0.0000329
Mean motion
1.70474430 rev/d
Perigee alt
23,221.2 km
Apogee alt
23,223.1 km
Semi-major
29,600.3 km
B*
0.0000e+0
RAAN
99.4534°
Arg perigee
62.8198°
Mean anomaly
298.7279°
Rev number
478

§ Raw data

GSAT0234 (GALILEO 34)1 67162U 25302C   26262.08092277  .00000017  00000+0  00000+0 0  99932 67162  54.3983  99.4534 0000329  62.8198 298.7279  1.70474430  4781

JSON: /api/v1/satellites/67162 · /tle

For live sub-satellite position, see the globe view (requires WebGL).

§ Visibility from observer

Set your observer location to see the next 7 days of passes ≥ 10°. The values pass through the URL so the page stays shareable.

No JS? Fill the form by hand. The geolocation button needs JavaScript.